Change the Weather History Date:

Friday, January 21, 2011

  Actual Average Record
Temperature  
Mean Temperature -3 °F 21 °F  
Max Temperature 9 °F 30 °F 64 °F (1957)
Min Temperature -16 °F 13 °F -18 °F (1970)
Degree Days  
Heating Degree Days 68 44  
Month to date heating degree days 1014 923  
Since 1 July heating degree days 3614 3503  
Cooling Degree Days 0 0  
Month to date cooling degree days 0 0  
Year to date cooling degree days 0 0  
Moisture  
Dew Point -7 °F    
Average Humidity 73    
Maximum Humidity 79    
Minimum Humidity 66    
Precipitation  
Precipitation T in 0.04 in 0.69 in (1958)
Month to date precipitation 0.51 0.57  
Year to date precipitation 0.51 0.57  
Snow  
Snow 0.10 in - - ()
Month to date snowfall 6.1  
Since 1 July snowfall 30.5  
Snow Depth 3.00 in    
Sea Level Pressure  
Sea Level Pressure 30.12 in    
Wind  
Wind Speed 7 mph (SSW)    
Max Wind Speed 15 mph    
Max Gust Speed 18 mph    
Visibility 8 miles    
Events Snow    
T = Trace of Precipitation, MM = Missing Value Source: NWS Daily Summary

Daily Weather History Graph

Daily Weather History Graph

Search for Another Location

Airport or City:

Trip Planner

Search our weather history database for the weather conditions in past years. The results will help you decide how hot, cold, wet, or windy it might be!

Date:

Astronomy

Jan. 21, 2011 Rise Set
Actual Time 7:23 AM CST 5:04 PM CST
Civil Twilight 6:53 AM CST 5:34 PM CST
Nautical Twilight 6:19 AM CST 6:08 PM CST
Astronomical Twilight 5:46 AM CST 6:41 PM CST
Moon 7:43 PM CST (1/21) 8:15 AM CST (1/21)
Length of Visible Light 10h 40m
Length of Day
9h 40m
Waning Gibbous, 95% of the Moon is Illuminated
Jan 21
Waning Gibbous
Jan 26
Last Quarter
Feb 2
New
Feb 11
First Quarter
Feb 18
Full

Hourly Weather History & Observations

Time (CST) Temp. Windchill Dew Point Humidity Pressure Visibility Wind Dir Wind Speed Gust Speed Precip Events Conditions
12:52 AM -7.1 °F -27.6 °F -14.1 °F 72% 30.20 in 10.0 mi WNW 13.8 mph - N/A   Clear
1:52 AM -9.0 °F -28.4 °F -15.0 °F 75% 30.20 in 10.0 mi WNW 11.5 mph - N/A   Clear
3:52 AM -11.0 °F -27.6 °F -18.0 °F 71% 30.20 in 10.0 mi NW 8.1 mph - N/A   Clear
4:52 AM -13.0 °F -32.4 °F -20.0 °F 71% 30.21 in 10.0 mi West 10.4 mph - N/A   Clear
6:52 AM -15.0 °F -31.0 °F -20.9 °F 75% 30.19 in 10.0 mi North 6.9 mph - N/A   Clear
7:52 AM -15.0 °F -27.4 °F -22.0 °F 71% 30.22 in 10.0 mi West 4.6 mph - N/A   Clear
8:52 AM -11.9 °F -21.5 °F -18.0 °F 74% 30.23 in 10.0 mi NNW 3.5 mph - N/A   Clear
9:52 AM -9.9 °F -21.5 °F -17.0 °F 71% 30.25 in 10.0 mi West 4.6 mph - N/A   Clear
10:52 AM -6.0 °F -14.7 °F -14.1 °F 68% 30.23 in 9.0 mi North 3.5 mph - 0.00 in Snow Light Snow
11:52 AM -4.0 °F - -11.0 °F 72% 30.21 in 9.0 mi Calm Calm - 0.00 in   Clear
12:52 PM -2.0 °F -10.1 °F -9.0 °F 72% 30.19 in 9.0 mi WNW 3.5 mph - N/A   Clear
1:52 PM 1.0 °F -6.7 °F -8.0 °F 66% 30.17 in 8.0 mi NNW 3.5 mph - N/A   Clear
2:52 PM 1.9 °F - -7.1 °F 66% 30.16 in 9.0 mi Calm Calm - N/A   Partly Cloudy
3:52 PM 3.0 °F -4.4 °F -6.0 °F 66% 30.14 in 8.0 mi ENE 3.5 mph - N/A   Overcast
4:52 PM 3.0 °F -8.0 °F -5.1 °F 69% 30.12 in 5.0 mi SE 5.8 mph - N/A   Haze
5:52 PM 3.9 °F -5.3 °F -4.0 °F 70% 30.11 in 8.0 mi SE 4.6 mph - 0.00 in   Overcast
6:20 PM 6.8 °F -9.3 °F -2.2 °F 67% 30.03 in 9.0 mi SSE 12.7 mph - N/A   Overcast
6:49 PM 6.8 °F -6.9 °F -2.2 °F 67% 30.02 in 8.0 mi SSE 9.2 mph - N/A   Overcast
6:52 PM 7.0 °F -6.6 °F -2.0 °F 67% 30.09 in 8.0 mi SSE 9.2 mph - N/A   Overcast
7:11 PM 6.8 °F -6.9 °F -0.4 °F 72% 30.02 in 8.0 mi South 9.2 mph - N/A   Overcast
7:41 PM 6.8 °F -9.3 °F -0.4 °F 72% 30.01 in 4.0 mi SSE 12.7 mph - 0.00 in Snow Light Snow
7:52 PM 7.0 °F -9.8 °F -0.9 °F 70% 30.07 in 5.0 mi SSE 13.8 mph - 0.00 in Snow Light Snow
8:01 PM 6.8 °F -10.0 °F -0.4 °F 72% 30.00 in 4.0 mi South 13.8 mph - 0.00 in Snow Light Snow
8:52 PM 8.1 °F -6.2 °F 1.0 °F 73% 30.05 in 6.0 mi South 10.4 mph - 0.00 in Snow Light Snow
9:52 PM 8.1 °F -4.3 °F 1.0 °F 73% 30.04 in 2.0 mi South 8.1 mph - 0.00 in Snow Light Snow
10:08 PM 8.6 °F -2.6 °F 1.4 °F 73% 29.97 in 3.0 mi SSW 6.9 mph - 0.00 in Snow Light Snow
10:52 PM 8.1 °F -5.3 °F 1.9 °F 76% 30.01 in 4.0 mi South 9.2 mph - 0.00 in   Haze
11:52 PM 9.0 °F -5.1 °F 3.0 °F 77% 29.97 in 4.0 mi South 10.4 mph - 0.00 in Snow Light Snow